Reflectivity
1 2 16 22 14 -20 -20 -20 -18 -12 0 7 11 -20 -17 3 4 -6 -20 -20 -20 -20 -20 -20 -20 -20 -20 -20 -20 -20 -20 -20 -20 -20 -20 -20 -20 -20 -20 -20 -20 -20 -20 -20 -20
-18 7 -4 3 -10 21 14 -20 12 -20 -19 11 5 -20 7 4 -17 -20 -20 -20 -20 -20 -20 -20 -20 -20 -20 -20 -20 -20 -20 -20 -20 -20 -20 -20 -20 -20 -20 -20 -20 -20 -20 -20 -20
-20 -20 -11 6 7 -9 6 21 3 7 -20 3 5 -20 7 9 -20 -20 -20 -20 -20 13 -20 -20 -20 -20 -20 -20 -20 -20 -20 -20 -20 -20 -20 -20 -20 -20 -20 -20 -20 -20 -20 -20 -20
-20 -20 -20 -20 -20 1 -10 7 14 16 -20 -20 -20 -20 -17 -11 -20 -20 -20 -20 -20 0 -20 -20 -20 -20 -20 -20 -20 -20 -20 -20 -20 -20 -20 -20 -20 -20 -20 -20 -20 -20 -20 -20 -20
14 8 8 -20 -20 -19 3 5 -18 15 16 -20 -20 -20 -2 -10 -20 -20 -20 -19 14 -20 -20 -20 -20 -20 -20 -20 -20 -20 -20 -20 -20 -20 -20 -20 -20 -20 -20 -20 -20 -20 -20 -20 -20
7 3 17 14 -20 -20 -20 -12 -1 -3 15 15 -10 -16 10 -20 -3 -14 -3 4 -11 -6 -20 -20 -20 -20 -20 -20 -20 -20 -20 -20 -20 -20 -20 -20 -20 -20 -20 -20 -20 -20 -20 -20 -20
3 -20 -20 -20 -20 17 -20 -20 -16 -12 -19 20 16 11 2 -17 6 -5 6 12 -20 -20 -20 -20 -20 -20 -20 -20 -20 -20 -20 -20 -20 -20 -20 -20 -20 -20 -20 -20 -20 -20 -20 -20 -20
4 7 11 -20 -20 -11 -20 18 -20 -20 -20 -20 23 14 7 -6 10 -1 -13 3 15 -20 -20 -20 -20 -20 -20 -20 -20 -20 -20 -20 -20 -20 -20 -20 -20 -20 -20 -20 -20 -20 -20 -20 -20
-6 -19 -14 -20 -20 -11 -20 -20 -15 -20 -20 -11 22 -4 7 -18 4 -8 4 -8 -13 -20 -20 -20 -20 -20 -20 -20 -20 -20 -20 -20 -20 -20 -20 -20 -20 -20 -20 -20 -20 -20 -20 -20 -20
2 -9 -20 -20 -10 -11 20 5 -20 -20 -20 -5 12 11 -20 -18 -6 0 -20 -1 -6 -20 -20 -20 -17 -15 -20 -20 -18 -20 -20 -20 -20 -20 -20 -20 -20 -20 -20 -20 -20 -20 -20 -20 -20
-16 14 -20 -20 -20 -20 -20 -20 -20 12 9 -20 -20 -20 -20 -20 -10 -2 -20 -20 -5 -17 -20 -20 -20 -20 -20 -20 -20 -20 -20 -20 -20 -20 -20 -20 -20 -20 -20 -20 -20 -20 -20 -20 -20
5 -0 -20 -20 17 -20 -20 9 8 17 25 13 -20 4 -6 -20 -20 -20 -20 -20 -20 -20 -20 -20 -20 -20 -20 -20 -20 -20 -20 -20 -20 -20 -20 -20 -20 -20 -20 -20 -20 -20 -20 -20 -20
-12 -11 -20 7 -1 -20 -20 -20 -5 23 31 23 -20 -20 -20 1 -3 -20 -10 -20 -20 -20 -13 -19 -20 -20 -20 -20 -20 -20 -20 -20 -20 -20 -20 -20 -20 -20 -20 -20 -20 -20 -20 -20 -20
-20 2 11 -18 18 8 10 -7 18 24 28 12 -13 -20 -16 16 -5 -20 3 -12 -20 -20 -20 -20 -20 -20 -20 -20 -20 -20 -20 -20 -20 -20 -20 -20 -20 -20 -20 -20 -20 -20 -20 -20 -20
13 14 17 25 21 12 -20 19 24 9 23 -20 -20 -20 -20 -20 -20 -20 -20 10 3 -20 -20 -20 -20 -20 -20 -20 -20 -20 -20 -20 -20 -20 -20 -20 -20 -20 -20 -20 -20 -20 -20 -20 -20
4 7 12 -7 22 -9 11 21 14 17 26 20 -20 -20 -20 -20 -20 -20 -20 -17 14 -16 -20 -20 -20 -20 -19 -20 -20 -20 -20 -20 -20 -20 -20 -20 -20 -20 -20 -20 -20 -20 -20 -20 -20
-20 -11 21 -2 -17 -5 25 8 14 11 14 17 16 -20 -20 9 22 -19 0 -12 3 7 -20 -17 -20 -20 -20 -19 -20 -20 -20 -20 -20 -20 -20 -20 -20 -16 -20 -20 -20 -20 -20 -20 -20
-19 18 -20 -20 17 21 15 23 14 18 -15 13 12 -20 -15 28 17 -19 22 12 2 -20 -20 -5 -20 -20 -20 -20 -20 -20 -20 -20 -20 -20 -20 -20 -20 -12 -17 -20 -20 -20 -20 -20 -20
-20 -20 -20 -20 -20 20 18 19 18 -18 21 -16 22 21 23 10 -12 -7 4 15 5 -20 -20 -20 -20 -20 -20 -20 -20 -20 -20 -20 -20 -20 -20 -20 -20 -8 -17 -20 -20 -20 -20 -20 -20
-20 -20 -20 -20 -16 21 20 -18 -11 12 5 13 20 5 11 22 22 15 19 -20 9 -20 -20 -20 -20 -20 -20 -20 -20 -20 -20 -20 -20 -20 -20 -20 -20 -19 -18 -20 -20 -20 -20 -20 -20
-20 -20 -20 -20 23 12 15 10 2 -19 19 21 13 14 4 23 19 20 26 -20 -7 -20 -20 -20 -15 -20 -20 -20 -20 -20 -20 -20 -20 -20 -20 -20 -20 -20 -20 -20 -20 -20 -20 -20 -20
-18 4 -20 0 11 7 20 -20 17 -9 20 14 -18 -20 -18 8 17 15 4 24 -20 11 -20 -20 -20 -20 -20 -20 -20 -20 -20 -20 -20 -20 -20 -20 -20 -20 -20 -20 -20 -20 -20 -20 -20
1 -20 -20 6 -6 10 -9 6 9 -20 -20 -20 -20 -9 -12 -8 14 -9 17 5 -20 2 -20 -10 26 17 -19 -20 -20 -20 -20 -20 -20 -20 -20 -20 -20 -20 -20 -20 -20 -20 -20 -20 -20
-10 -20 -20 -19 -2 6 12 -6 5 -12 -10 -20 -17 5 23 21 3 -3 24 -11 0 -4 -20 -7 -20 -16 2 -20 -20 -20 -20 -20 -20 -20 -20 -20 -20 -20 -20 -20 -20 -20 -20 -20 -20
-20 -20 -14 -0 3 4 9 -14 -1 2 -6 -20 -11 -16 7 25 -4 9 -16 -13 -6 4 17 -20 -18 -20 -20 -20 -20 -20 -20 -20 -20 -20 -20 -20 -20 -20 -20 -20 -20 -20 -20 -20 -20
3 -20 10 -6 -20 -11 16 19 -20 -13 -3 -19 -11 3 20 4 -3 -16 2 27 -11 2 7 29 -2 -16 -20 -20 -20 -20 -20 -20 -20 -20 -20 -20 -20 -20 -20 -20 -20 -20 -20 -20 -20
-20 9 14 -19 -20 -8 19 20 24 29 -19 -20 -10 17 -20 -20 -20 -20 -12 15 -0 -17 -10 5 7 9 2 -20 -16 -13 -20 -20 -20 -20 -20 -20 -20 -20 -20 -20 -20 -20 -20 -20 -20
Wind_Speed
18 19 19 17 14 12 12 11 10 10 11 12 12 13 10 11 9 9 15 7 9 10 12 10 10 9 9 9 5 2 8 11 11 10 4 9 9 3 2 9 4 5 1 3 22
18 17 20 20 19 17 14 12 11 9 12 12 11 13 12 7 10 18 13 10 13 14 13 16 14 13 8 9 7 12 11 13 3 5 3 9 9 11 9 10 8 9 5 17 21
17 18 18 20 19 20 19 15 12 9 10 12 11 12 13 7 7 5 6 17 16 13 11 11 12 12 12 9 11 13 13 11 4 4 2 5 7 7 8 11 12 15 17 22 22
16 17 16 17 18 18 18 18 15 12 9 10 9 11 12 3 5 2 1 20 18 12 13 13 12 13 11 13 15 9 16 4 3 3 3 5 3 7 12 2 2 8 19 24 24
20 19 18 17 17 18 17 17 17 15 12 8 8 9 5 6 9 5 5 16 14 15 14 15 15 15 14 13 9 16 6 11 9 4 3 2 7 7 10 6 2 10 18 22 20
22 20 21 20 18 17 18 17 17 17 13 9 7 6 6 10 1 5 7 12 11 14 13 12 11 11 10 7 16 6 17 10 7 8 4 6 6 3 7 8 8 14 19 20 21
20 20 20 20 19 20 16 18 17 17 16 13 9 7 12 16 3 3 5 12 11 12 11 12 5 14 7 7 6 10 4 9 13 9 9 6 13 16 7 10 11 14 16 18 19
21 21 21 20 21 19 19 18 17 18 18 15 12 9 9 5 12 12 6 5 7 8 5 10 6 11 6 5 5 12 10 14 5 14 7 9 14 7 17 14 15 15 15 17 20
21 21 21 21 20 20 20 19 18 19 18 14 9 8 12 3 9 16 13 9 9 7 6 5 8 7 6 10 8 10 8 17 8 11 9 16 12 3 5 16 18 16 16 17 17
21 21 21 22 21 19 19 18 17 18 11 8 8 8 9 7 6 8 15 12 7 11 8 9 6 9 9 12 12 14 14 7 15 8 13 13 20 8 7 13 16 18 17 17 18
21 20 21 21 20 17 12 6 7 7 15 15 10 14 0 7 5 7 15 14 10 14 13 16 13 16 21 22 14 7 12 11 7 5 8 18 20 19 15 9 14 16 18 18 19
22 20 22 22 20 16 8 4 10 1 10 18 23 19 10 2 5 8 16 15 15 16 14 7 20 18 18 19 19 10 10 9 2 3 9 10 17 17 19 20 18 16 18 19 19
22 21 22 21 19 12 12 17 9 4 6 10 21 19 22 14 14 12 20 18 18 20 21 19 4 18 15 16 19 19 16 8 2 3 7 8 16 18 18 23 21 23 17 20 21
23 21 20 18 12 5 6 4 3 5 6 7 12 12 16 12 12 18 20 16 8 20 17 15 13 11 18 20 18 20 18 14 10 5 6 3 7 6 9 13 22 22 22 20 22
23 22 19 11 8 8 10 6 4 3 8 8 10 4 17 21 9 19 22 7 14 13 9 10 14 18 17 19 20 14 11 15 12 9 7 9 7 5 4 10 20 21 23 22 22
22 19 15 7 4 8 7 3 1 3 7 6 7 13 13 26 23 8 19 14 8 10 5 6 1 12 9 8 17 10 10 8 5 6 10 15 12 8 10 9 7 17 20 21 21
19 16 11 5 5 4 2 1 5 7 4 5 7 8 18 15 21 15 20 21 13 9 10 9 6 5 6 9 11 16 18 6 6 7 8 1 12 15 9 6 3 4 14 21 20
18 15 7 7 5 6 2 3 7 4 8 3 3 7 13 11 17 15 17 18 23 20 12 13 10 12 10 11 12 20 20 5 8 7 6 4 11 7 6 1 6 4 5 16 19
10 3 3 3 3 4 3 6 4 6 1 2 7 7 8 13 9 11 20 22 20 19 11 12 13 10 12 6 16 15 17 2 2 2 3 7 6 15 13 11 6 8 7 14 19
4 4 3 6 4 4 3 6 5 2 4 4 6 5 12 14 11 17 16 16 23 22 13 6 5 5 4 5 5 9 13 9 4 8 7 6 5 8 3 7 9 9 9 12 15
2 4 3 4 3 2 3 4 5 8 6 5 4 6 3 2 9 9 12 4 22 21 19 6 4 6 7 14 16 6 10 5 3 4 6 6 4 2 2 1 10 11 8 12 14
2 3 5 4 2 2 4 4 3 9 6 6 3 6 9 3 6 12 13 9 13 13 18 6 1 7 14 4 4 13 9 14 8 8 1 4 1 2 3 3 6 9 9 9 11
1 3 2 2 3 3 4 8 5 5 6 3 4 7 3 7 4 6 9 4 7 14 17 13 5 6 5 3 3 9 12 11 3 1 10 11 5 1 1 4 5 11 11 10 11
1 3 2 1 1 5 7 6 4 4 6 3 4 2 4 5 3 4 4 3 7 6 10 14 6 7 11 10 7 8 7 7 13 12 10 11 11 6 3 7 8 10 11 12 12
2 1 3 3 2 6 8 4 10 5 4 4 3 8 3 2 3 4 4 4 3 7 10 7 8 13 13 4 7 7 13 16 15 19 18 14 13 13 3 9 9 11 13 14 14
0 2 2 6 8 9 8 2 7 10 3 3 6 1 0 5 3 5 7 7 5 7 6 5 5 14 17 5 9 10 17 20 22 23 23 18 16 7 2 7 11 13 14 16 16
1 2 2 3 5 7 3 4 5 2 5 9 6 4 3 7 6 4 7 5 3 8 10 7 6 8 15 12 5 10 19 22 22 23 21 21 17 7 7 10 14 16 16 17 18
Wind_Direction
337 345 347 332 316 313 314 311 309 320 327 327 329 318 310 304 299 248 249 249 199 222 169 162 174 167 176 186 205 209 231 230 231 212 188 158 171 160 114 141 169 150 193 108 144
326 330 333 337 337 331 308 306 302 308 318 322 327 321 316 322 289 268 236 222 218 181 173 176 177 173 183 194 191 209 226 231 278 228 202 175 206 159 179 162 184 166 120 142 153
329 324 321 320 326 332 331 315 306 306 314 317 325 323 320 306 294 245 178 204 199 172 180 187 173 182 196 187 193 209 234 222 234 218 255 182 198 177 199 200 196 192 158 160 164
321 320 320 317 312 317 323 329 313 300 301 310 322 324 321 273 281 38 316 183 189 180 163 171 177 187 203 202 196 220 230 211 223 183 188 205 152 205 212 169 267 190 165 165 172
319 312 308 316 317 311 314 321 323 309 291 296 312 321 297 240 255 319 259 184 180 178 185 177 186 197 204 207 193 222 204 221 228 189 205 179 216 235 224 202 136 151 165 173 176
321 325 320 313 309 310 307 307 312 317 295 281 286 304 240 252 325 303 195 151 174 186 192 195 198 201 217 217 211 199 231 226 217 207 202 216 215 219 218 167 153 165 175 181 182
316 317 314 315 319 308 301 307 303 304 309 273 273 264 247 241 152 12 214 201 183 197 192 206 204 186 172 211 223 203 188 221 226 209 223 214 239 228 214 188 187 187 183 184 185
313 313 316 316 313 306 306 295 300 297 298 278 264 250 252 243 241 238 208 201 191 202 221 197 196 207 215 129 159 206 233 230 163 204 191 195 250 233 209 196 196 196 189 187 189
322 315 316 308 304 302 298 297 288 289 286 274 258 215 257 110 217 223 191 198 180 188 199 173 189 199 174 195 187 196 236 218 214 204 187 208 252 253 220 212 215 202 196 194 190
318 322 313 308 314 306 297 305 283 277 260 242 242 219 235 220 190 184 187 172 164 169 156 183 189 193 200 196 206 203 218 224 219 183 203 208 239 208 192 215 225 213 207 199 195
316 317 311 312 314 325 324 312 269 231 227 210 195 215 27 187 152 184 169 167 167 184 188 192 200 205 198 206 225 279 213 221 196 174 210 230 243 239 219 209 222 221 214 207 201
316 313 308 308 314 321 296 241 257 18 296 236 247 235 219 51 182 179 177 175 184 193 185 183 220 213 216 211 223 212 204 210 177 166 224 250 258 249 238 231 221 216 214 209 203
310 311 304 306 310 289 252 258 265 234 236 255 232 229 225 219 236 196 190 196 197 199 196 206 180 217 208 200 209 217 216 173 0 170 235 286 268 234 231 228 225 226 214 212 204
309 306 301 307 290 292 258 284 8 230 250 206 215 229 193 210 237 212 195 181 189 206 201 227 203 193 207 212 206 222 219 239 222 272 263 283 289 237 212 219 221 216 210 204 203
311 305 300 293 291 276 281 300 6 13 252 147 192 161 194 192 161 192 184 197 185 164 191 190 198 198 201 208 201 220 202 213 225 238 278 213 258 231 174 224 223 218 209 202 197
321 313 302 289 229 268 276 270 3 205 263 152 162 187 185 205 210 132 180 192 204 178 205 220 109 209 207 200 200 136 132 133 181 223 248 233 230 244 217 227 224 212 210 201 193
321 310 302 265 257 223 207 102 238 224 336 190 200 190 198 191 206 193 189 194 180 176 190 189 199 160 164 143 167 185 171 147 182 202 238 303 212 252 221 193 209 192 211 202 191
316 314 271 253 254 223 130 193 249 262 192 198 293 199 191 176 194 202 195 200 208 205 197 197 202 177 179 203 174 193 193 188 190 196 185 181 228 246 253 301 236 182 192 196 190
327 300 273 344 248 184 183 239 267 282 16 299 290 239 186 185 154 179 212 206 200 207 202 201 213 173 183 156 160 184 220 274 94 73 200 185 244 276 244 232 184 187 168 184 189
312 297 304 338 173 150 247 263 248 256 159 137 264 277 223 189 180 192 192 211 207 202 220 187 176 198 141 149 194 213 162 189 240 184 219 179 249 252 170 204 185 184 179 171 183
333 309 37 343 169 150 247 270 279 249 239 216 239 261 313 286 182 207 205 176 197 197 199 185 239 144 167 208 183 162 194 210 257 297 243 220 205 76 269 277 192 181 169 164 175
357 287 20 333 275 236 245 214 256 267 230 249 292 251 249 202 198 196 202 218 198 174 197 161 277 189 198 74 345 232 216 200 210 199 155 314 168 159 277 270 201 160 155 150 163
345 280 19 297 270 256 266 258 258 260 251 203 251 242 259 231 184 185 243 173 169 180 162 160 169 152 170 208 192 220 199 211 124 217 200 213 180 106 282 144 140 150 151 148 149
41 317 296 57 314 296 304 298 251 228 244 214 253 184 221 220 115 175 194 77 175 209 150 164 163 210 206 209 142 195 207 223 217 225 204 225 244 212 173 155 147 147 149 149 152
19 348 330 304 287 292 296 272 278 257 222 197 248 240 163 314 142 184 153 118 151 182 171 144 217 218 243 253 202 230 192 183 200 220 224 221 225 242 164 180 167 155 148 150 152
326 285 261 289 296 286 278 221 267 252 270 236 242 300 251 214 214 162 149 240 190 191 164 178 254 206 217 212 212 232 221 204 216 219 225 230 233 234 86 139 160 165 162 160 159
89 290 295 295 307 308 1 326 293 213 255 240 246 254 233 250 252 258 237 221 172 176 192 171 197 197 218 181 203 249 222 212 222 224 218 220 222 173 189 192 183 174 171 165 162